Location: Contre
(49.7477°N, 2.0963°E)
Time: 21:59:09
(UTC+00:00)

Meteor 2-12 Rocket - Pass Details

Date: 08 August 2024
Orbit: 936 x 957 km, 82.5° (Epoch: 07 September)

Event Time Altitude Azimuth Distance (km) Brightness Sun altitude
Rises 22:32:59 0° 1° (N) 3,611 8.6 -21.9°
Reaches altitude 10° 22:37:36 10° 33° (NNE) 2,665 7.2 -22.2°
Maximum altitude 22:39:37 12° 52° (NE) 2,547 6.9 -22.3°
Drops below altitude 10° 22:41:38 10° 72° (ENE) 2,664 6.8 -22.4°
Enters shadow 22:44:09 - 92° (E) 3,092 6.9 -22.5°
